Regional Weather Roundup
Issued by NWS

Home | Current Version | Previous Version | Graphics & Text | Print | Product List | Glossary On
Versions: 1 2 3 4 5 6 7 8 9 10 11 12 13 14 15 16 17 18 19 20 21 22 23 24 25 26 27 28 29 30 31 32 33 34 35 36 37 38 39 40 41 42 43 44 45 46 47 48 49 50
000
ASUS43 KMKX 301711
RWRWI

WISCONSIN REGIONAL WEATHER ROUNDUP
NATIONAL WEATHER SERVICE MILWAUKEE/SULLIVAN WI
1200 PM CDT WED JUL 30 2014

NOTE: "FAIR" INDICATES FEW OR NO CLOUDS BELOW 12,000 FEET WITH NO
SIGNIFICANT WEATHER AND/OR OBSTRUCTIONS TO VISIBILITY.

WIZ001-002-006>008-014>016-023>028-301800-
NORTHWEST WISCONSIN

CITY           SKY/WX    TMP DP  RH WIND       PRES   REMARKS
SUPERIOR ARPT  FAIR      71  61  70 SW6       30.04F
ASHLAND        FAIR      70  59  68 VRB6      30.05F
HAYWARD        FAIR      65  58  78 S8        30.09S
SIREN          FAIR      72  58  60 NW6       30.08F
RICE LAKE      FAIR      67  56  67 CALM      30.11F
LADYSMITH      FAIR      65  59  80 SW3       30.11F
EAU CLAIRE     FAIR      69  56  62 CALM      30.09S
MENOMONIE      FAIR      72  56  58 W3        30.09F
NEW RICHMOND   FAIR      73  57  55 CALM      30.10S
OSCEOLA        FAIR      73  59  60 SW3       30.11F
$$

WIZ003>005-009-010-017-018-301800-
NORTH CENTRAL WISCONSIN

CITY           SKY/WX    TMP DP  RH WIND       PRES   REMARKS
WOODRUFF       FAIR      72  55  55 W6        30.07S
RHINELANDER    FAIR      68  52  56 VRB6      30.08S
EAGLE RIVER    PTSUNNY   67  46  46 NW8       30.06S
LAND O LAKES   PTSUNNY   68  44  41 N8        30.06F
PHILLIPS       FAIR      65  56  74 SW5       30.08F
TOMAHAWK       FAIR      64  55  72 CALM      30.08F
MEDFORD        FAIR      65  56  72 N3        30.09F
MERRILL        FAIR      66  56  68 NW6       30.07F
$$

WIZ029-030-035-036-043>047-301800-
CENTRAL WISCONSIN

CITY           SKY/WX    TMP DP  RH WIND       PRES   REMARKS
WAUSAU         FAIR      69  53  56 W10       30.06S
MOSINEE        MOSUNNY   70  46  43 N9        30.08F
MARSHFIELD     FAIR      71  52  50 NW10      30.08S
STEVENS POINT  FAIR      67  47  47 NW7       30.07S
WAUPACA        FAIR      72  48  41 N8        30.06S
WAUTOMA        FAIR      73  50  44 CALM      30.06F
WISC RAPIDS    FAIR      71  50  47 W5        30.08S
CAMP DOUGLAS   MOSUNNY   66  63  88 VRB5      30.09S
$$

WIZ011>013-019>022-031-037>040-048>050-301800-
NORTHEAST WISCONSIN

CITY           SKY/WX    TMP DP  RH WIND       PRES   REMARKS
ANTIGO         FAIR      66  52  59 NW8       30.07F
STURGEON BAY   FAIR      64  52  63 NW8       30.06R
GREEN BAY      FAIR      69  54  58 NW9       30.05S
MANITOWOC      FAIR      68  56  65 VRB5      30.05S
APPLETON       PTSUNNY   70  48  46 NW7       30.06S
CLINTONVILLE   FAIR      70  48  46 N7        30.05F
OSHKOSH        PTSUNNY   68  56  65 NE5       30.05S
$$

WIZ032>034-041-042-053>061-301800-
SOUTHWEST WISCONSIN

CITY           SKY/WX    TMP DP  RH WIND       PRES   REMARKS
LA CROSSE      FAIR      72  59  63 W7        30.08S
SPARTA         PTSUNNY   65  57  74 CALM      30.10S
VIROQUA        FAIR      70  58  65 N5        30.10R
BOSCOBEL       FAIR      78  57  48 MISG      30.07S
PRAIRIE DU CHI FAIR      74  54  49 NW7       30.08S
PLATTEVILLE    FAIR      73  60  64 NW6       30.09S
$$

WIZ056-057-062-063-064-067-068-301800-
SOUTH CENTRAL WISCONSIN

CITY           SKY/WX    TMP DP  RH WIND       PRES   REMARKS
BARABOO/DELLS  FAIR      68  55  61 N3        30.08S
LONE ROCK      FAIR      77  59  53 NW9       30.07S
WATERTOWN      PTSUNNY   67  60  80 CALM      30.06F
MADISON        PTSUNNY   72  58  61 VRB5      30.07S
MIDDLETON      FAIR      73  56  56 N3        30.07F
MONROE         FAIR      72  57  60 W3G9      30.07S
JANESVILLE     PTSUNNY   75  55  50 NW12G17   30.05S
$$

WIZ051-052-058>065-066-070>072-301800-
SOUTHEAST WISCONSIN

CITY           SKY/WX    TMP DP  RH WIND       PRES   REMARKS
MILWAUKEE      FAIR      68  57  68 NE12      30.06S
WAUKESHA       PTSUNNY   64  57  77 W6        30.07
MILWAUKEE/TIMM CLOUDY    68  55  64 NE6       30.06S
RACINE         FAIR      69  59  70 NE12      30.07S
BURLINGTON     PTSUNNY   68  58  68 N6        30.06R
KENOSHA        PTSUNNY   70  60  70 N5        30.06R
FOND DU LAC    FAIR      69  56  62 NE9       30.06S
SHEBOYGAN      FAIR      69  54  58 N3        30.05S
WEST BEND      FAIR      68  54  60 CALM      30.05F
JUNEAU         CLOUDY    67  56  67 NE3       30.07S
$$

LSZ147-162-301800-
LAKE SUPERIOR

STATION/POSITION TIME  TEMP    WIND        PRES    WAVE
                       AIR SEA DIR/SP/G            HT/PER
                 (UTC) (F)     (DEG/KT/KT) (MB)    (FT/S)
W MID LAKE BUOY  1650   48 42  220/ 10/ 12 1016.5F   0
PORT WING        1600   60     280/  8/  9 1017.6F
SAXON HARBOR     1600           CALM  /  4 1017.9S
$$

LMZ867-665-643>646-301800-
LAKE MICHIGAN

STATION/POSITION TIME  TEMP    WIND        PRES    WAVE
                       AIR SEA DIR/SP/G            HT/PER
                 (UTC) (F)     (DEG/KT/KT) (MB)    (FT/S)
N MID LAKE BUOY  1650   53 54  100/  2/  4 1016.8R   1
NORTHPORT PIER   1600   60     310/  6/  9 1016.9F
SISTER BAY       1555   63     350/  9/ 11   N/A
ALGOMA LAKESHORE 1606          350/  8/ 10   N/A
KEWAUNEE LAKESHO 1600   58     160/  4/  5 1017.9S
SHEBOYGAN LAKESH 1700   60     140/  3/  4 1018.0R
PORT WASHINGTON  1600   63      40/  5/  7 1018.3R
ATWATER BUOY     1700   62      50/  8     1018.9R
MILWAUKEE LAKESH 1600   61      40/  9/ 10   N/A
S MID LAKE BUOY  1650   59 61  300/  8/  8 1017.8R   1
KENOSHA   LAKESH 1700   62      50/ 10/ 12 1017.3S
$$

TC  - TEMPERATURE IN CELSIUS
VSB - VISIBILITY IN STATUTE MILES
WCI - WIND CHILL INDEX
HX  - HEAT INDEX



USA.gov is the U.S. government's official web portal to all federal, state and local government web resources and services.